Location: ????
(30.2663°N, 31.2484°E)
Time: 07:57:18
(UTC+00:00)

Cosmos 1833 Rocket - Pass Details

Date: 27 September 2022
Orbit: 833 x 839 km, 71.0° (Epoch: 28 November)

Event Time Altitude Azimuth Distance (km) Brightness Sun altitude
Exits shadow 00:56:36 33° 84° (E) 1,370 4.1 -36.6°
Drops below altitude 10° 01:00:47 10° 40° (NE) 2,453 5.7 -35.7°
Sets 01:03:24 0° 31° (NNE) 3,391 6.5 -35.2°
